EHI
0 0 0 0 0 0 0 0 0 0 0 0 0 0 0 0 0 0 0 0 0 0 0 0 0 0 0 0 0 0 0 0 0 0 0 0 0 0 0 0 0 0 0 0
0 0 0 0 0 0 0 0 0 0 0 0 0 0 0 0 0 0 0 0 0 0 0 0 0 0 0 0 0 0 0 0 0 0 0 0 0 0 0 0 0 0 0 0
0 0 0 0 0 0 0 0 0 0 0 0 0 0 0 0 0 0 0 0 0 0 0 0 0 0 0 0 0 0 0 0 0 0 0 0 0 0 0 0 0 0 0 0
0 0 0 0 0 0 0 0 0 0 0 0 0 0 0 0 0 0 0 0 0 0 0 0 0 0 0 0 0 0 0 0 0 0 0 0 0 0 0 0 0 0 0 0
0 0 0 0 0 0 0 0 0 0 0 0 0 0 0 0 0 0 0 0 0 0 0 0 0 0 0 0 0 0 0 0 0 0 0 0 0 0 0 0 0 0 0 0
0 0 0 0 0 0 0 0 0 0 0 0 0 0 0 0 0 0 0 0 0 0 0 0 0 0 0 0 0 0 0 0 0 0 0 0 0 0 0 0 0 0 0 0
0 0 0 0 0 0 0 0 0 0 0 0 0 0 0 0 0 0 0 0 0 0 0 0 0 0 0 0 0 0 0 0 0 0 0 0 0 0 0 0 0 0 0 0
0 0 0 0 0 0 0 0 0 0 0 0 0 0 0 0 0 0 0 0 0 0 0 0 0 0 0 0 0 0 0 0 0 0 0 0 0 0 0 0 0 0 0 0
0 0 0 0 0 0 0 0 0 0 0 0 0 0 0 0 0 0 0 0 0 0 0 0 0 0 0 0 0 0 0 0 0 0 0 0 0 0 0 0 0 0 0 0
0 0 0 0 0 0 0 0 0 0 0 0 0 0 0 0 0 0 0 0 0 0 0 0 0 0 0 0 0 0 0 0 0 0 0 0 0 0 0 0 0 0 0 0
0 0 0 0 0 0 0 0 0 0 0 0 0 0 0 0 0 0 0 0 0 0 0 0 0 0 0 0 0 0 0 0 0 0 0 0 0 0 0 0 0 0 0 0
0 0 0 0 0 0 0 0 0 0 0 0 0 0 0 0 0 0 0 0 0 0 0 0 0 0 0 0 0 0 0 0 0 0 0 0 0 0 0 0 0 0 0 0
0 0 0 0 0 0 0 0 0 0 0 0 0 0 0 0 0 0 0 0 0 0 0 0 0 0 0 0 0 0 0 0 0 0 0 0 0 0 0 0 0 0 0 0
0 0 0 0 0 0 0 0 0 0 0 0 0 0 0 0 0 0 0 0 0 0 0 0 0 0 0 0 0 0 0 0 0 0 0 0 0 0 0 0 0 0 0 0
0 0 0 0 0 0 0 0 0 0 0 0 0 0 0 0 0 0 0 0 0 0 0 0 0 0 0 0 0 0 0 0 0 0 0 0 0 0 0 0 0 0 0 0
0 0 0 0 0 0 0 0 0 0 0 0 0 0 0 0 0 0 0 0 0 0 0 0 0 0 0 0 0 0 0 0 0 0 0 0 0 0 0 0 0 0 0 0
0 0 0 0 0 0 0 0 0 0 0 0 0 0 0 0 0 0 0 0 0 0 0 0 0 0 0 0 0 0 0 0 0 0 0 0 0 0 0 0 0 0 0 0
0 0 0 0 0 0 0 0 0 0 0 0 0 0 0 0 0 0 0 0 0 0 0 0 0 0 0 0 0 0 0 0 0 0 0 0 0 0 0 0 0 0 0 0
0 0 0 0 0 0 0 0 0 0 0 0 0 0 0 0 0 0 0 0 0 0 0 0 0 0 0 0 0 0 0 0 0 0 0 0 0 0 0 0 0 0 0 0
0 0 0 0 0 0 0 0 0 0 0 0 0 0 0 0 0 0 0 0 0 0 0 0 0 0 0 0 0 0 0 0 0 0 0 0 0 0 0 0 0 0 0 0
0 0 0 0 0 0 0 0 0 0 0 0 0 0 0 0 0 0 0 0 0 0 0 0 0 0 0 0 0 0 0 0 0 0 0 0 0 0 0 0 0 0 0 0
0 0 0 0 0 0 0 0 0 0 0 0 0 0 0 0 0 0 0 0 0 0 0 0 0 0 0 0 0 0 0 0 0 0 0 0 0 0 0 0 0 0 0 0
0 0 0 0 0 0 0 0 0 0 0 0 0 0 0 0 0 0 0 0 0 0 0 0 0 0 0 0 0 0 0 0 0 0 0 0 0 0 0 0 0 0 0 0
0 0 0 0 0 0 0 0 0 0 0 0 0 0 0 0 0 0 0 0 0 0 0 0 0 0 0 0 0 0 0 0 0 0 0 0 0 0 0 0 0 0 0 0
0 0 0 0 0 0 0 0 0 0 0 0 0 0 0 0 0 0 0 0 0 0 0 0 0 0 0 0 0 0 0 0 0 0 0 0 0 0 0 0 0 0 0 0
0 0 0 0 0 0 0 0 0 0 0 0 0 0 0 0 0 0 0 0 0 0 0 0 0 0 0 0 0 0 0 0 0 0 0 0 0 0 0 0 0 0 0 0
0 0 0 0 0 0 0 0 0 0 0 0 0 0 0 0 0 0 0 0 0 0 0 0 0 0 0 0 0 0 0 0 0 0 0 0 0 0 0 0 0 0 0 0
Wind_Speed
8 9 8 10 12 13 15 15 15 17 23 26 21 17 14 11 11 9 7 4 1 2 4 6 8 9 11 12 13 14 14 13 13 14 14 15 14 13 12 11 11 9 8 6
7 11 12 15 15 14 15 16 18 21 23 17 13 12 11 9 9 7 3 0 3 5 6 8 9 11 12 12 12 13 14 13 14 15 15 15 14 13 12 11 9 7 6 5
4 5 8 9 8 8 8 8 9 12 12 14 13 11 9 8 6 4 1 2 5 6 8 8 9 11 12 11 12 13 14 14 14 15 15 14 14 13 11 9 7 6 5 3
4 6 5 2 5 3 4 8 8 10 12 11 8 4 5 6 6 4 4 6 8 8 9 9 10 11 12 13 13 14 14 14 14 15 15 14 12 11 9 7 6 5 4 3
2 4 8 4 2 2 2 5 3 6 10 10 6 1 5 9 7 6 6 9 9 10 10 11 11 12 14 14 13 13 14 14 13 14 14 13 11 9 7 6 5 4 3 2
3 4 5 1 3 3 2 4 1 5 8 9 7 3 4 7 9 10 11 10 11 11 11 11 11 12 14 14 14 14 13 13 13 12 13 12 10 8 5 5 4 3 1 0
6 5 7 4 1 1 2 3 4 4 5 5 4 4 5 7 9 10 11 12 11 12 11 11 11 13 14 14 13 13 13 13 12 12 11 10 8 6 5 4 2 1 0 1
5 6 8 2 0 1 3 3 2 2 1 3 5 7 8 9 10 10 11 12 11 11 12 11 11 13 15 14 13 13 13 13 12 10 8 8 7 5 4 3 2 1 2 2
7 7 5 2 2 1 1 2 2 1 1 4 6 7 8 9 9 9 10 11 10 12 13 11 10 12 15 13 12 13 13 12 10 9 7 6 5 5 3 2 2 2 2 2
4 7 6 3 2 3 3 2 2 1 0 4 7 9 9 9 9 9 9 10 11 12 13 12 11 11 12 12 11 13 13 10 8 7 6 6 4 3 3 3 3 3 3 3
6 7 4 2 3 3 3 3 3 2 2 5 10 10 10 9 9 9 9 9 10 11 13 13 12 11 10 10 11 12 11 8 7 6 5 4 3 3 3 3 2 2 1 2
4 1 1 2 2 3 3 3 3 4 6 7 9 11 11 9 8 9 10 11 11 12 13 13 12 11 9 8 10 11 9 6 5 4 4 3 2 2 2 1 2 3 4 5
2 1 2 3 3 4 4 4 5 6 7 9 9 10 11 10 9 10 11 11 12 12 13 12 11 10 8 8 9 9 8 6 4 4 3 3 3 3 3 3 4 6 6 8
1 1 1 2 4 5 6 7 7 8 8 9 9 10 11 11 11 11 11 11 11 13 13 12 12 10 8 8 9 9 7 7 6 4 4 3 3 3 2 3 3 4 6 10
2 1 2 6 7 7 6 7 8 8 9 9 9 10 11 12 12 11 11 11 12 13 12 12 11 9 7 8 9 8 6 4 4 4 3 3 2 2 2 3 3 3 4 6
3 4 5 6 6 7 7 7 8 9 9 10 10 11 11 12 12 11 10 9 12 12 11 11 10 7 7 8 8 6 5 8 6 3 3 3 2 2 2 3 3 3 4 4
3 3 4 5 7 7 7 7 8 9 10 11 12 13 13 13 13 11 10 9 10 11 9 9 8 7 7 7 7 5 4 4 5 3 3 2 2 2 2 3 3 4 4 7
4 3 5 7 8 9 8 9 10 10 11 12 13 13 13 13 13 12 11 11 12 11 9 7 7 7 7 7 5 4 3 3 2 2 2 2 2 2 2 3 4 5 4 7
2 2 3 6 8 9 9 10 11 11 12 12 13 12 11 11 12 12 11 11 11 10 6 7 12 8 7 6 6 4 3 3 2 2 1 3 3 3 3 3 4 4 5 6
2 1 3 6 8 9 10 11 12 12 11 11 13 13 13 11 11 11 10 8 5 6 7 8 8 6 6 5 6 3 3 2 2 2 2 2 2 3 3 4 4 5 5 5
3 2 4 6 8 9 10 12 13 13 11 11 13 14 13 11 9 10 10 8 5 7 8 11 6 5 4 4 5 3 3 2 2 2 2 2 3 3 3 4 5 6 6 6
3 2 4 7 8 9 8 9 10 12 12 11 12 13 13 12 10 8 7 6 7 11 7 5 5 6 5 5 3 2 2 2 2 2 2 2 3 3 4 4 4 5 5 6
2 2 4 6 8 8 8 8 9 10 12 13 13 13 12 10 8 8 7 5 6 10 7 5 7 8 7 3 2 1 1 1 2 2 2 3 3 3 4 5 5 5 5 6
2 3 4 6 7 8 9 8 8 7 9 9 8 10 11 10 6 4 7 13 13 11 6 8 10 7 5 2 1 1 1 1 2 2 3 3 3 3 4 5 5 5 6 7
2 3 4 6 7 6 8 10 11 11 11 9 9 8 6 5 7 8 8 9 13 11 6 7 8 6 3 1 1 1 1 2 3 3 3 3 4 4 4 5 5 5 6 7
1 2 2 3 4 6 7 8 8 9 10 10 8 6 6 7 10 9 8 8 9 10 6 4 3 3 1 1 1 2 2 3 4 3 3 4 4 5 5 5 6 6 6 7
2 2 3 4 5 5 6 7 8 9 9 11 10 8 8 8 8 9 9 7 6 5 4 3 2 1 0 1 2 2 3 3 3 3 4 4 4 4 5 6 6 6 6 7
Wind_Direction
270 279 266 252 246 235 231 238 253 268 277 286 295 302 304 303 299 295 290 280 243 117 110 109 105 104 105 108 111 116 119 123 126 123 120 117 115 113 110 108 105 103 104 102
264 258 255 257 253 247 247 247 253 268 277 285 297 303 307 310 306 302 301 286 112 107 107 109 110 110 109 110 113 116 120 123 122 120 116 113 111 109 106 103 103 104 106 110
275 297 293 264 236 226 237 250 261 272 284 306 309 321 333 332 328 332 355 89 102 104 104 107 109 111 111 114 114 116 119 121 120 118 114 110 110 107 106 106 107 106 107 109
293 307 262 225 128 163 250 267 264 275 294 306 308 327 11 4 0 11 48 88 97 100 99 99 102 105 108 110 112 115 118 118 117 114 110 107 106 105 105 107 108 107 106 95
272 286 278 263 152 171 269 280 277 301 314 323 318 218 47 26 34 51 72 87 91 94 98 99 102 107 111 111 113 114 114 114 113 111 110 108 106 104 103 103 101 100 96 74
253 279 273 33 118 134 190 258 5 334 327 333 343 358 28 36 53 69 79 87 94 97 98 99 102 107 111 111 111 111 111 109 106 106 106 106 106 104 99 98 97 96 99 287
231 254 273 297 124 181 282 304 327 333 336 355 32 54 73 72 75 82 89 94 99 102 103 105 109 111 109 108 109 110 108 104 101 99 102 104 102 99 98 94 90 78 360 310
197 223 251 267 19 294 284 300 310 330 30 76 99 95 90 90 92 96 101 105 108 110 110 112 115 115 112 110 110 108 105 101 98 97 99 101 100 95 91 84 60 20 14 353
203 227 256 291 273 311 348 320 350 9 71 132 122 112 106 102 102 103 106 110 112 113 110 105 106 113 112 111 112 108 103 100 99 95 91 91 93 93 82 63 48 28 15 351
260 265 276 304 42 48 47 22 18 353 205 142 129 124 118 113 109 107 106 109 111 110 106 102 102 104 109 114 113 108 104 101 97 95 88 78 70 68 67 61 47 24 8 356
254 271 276 78 60 50 62 62 52 45 83 124 128 126 122 117 115 115 112 107 107 108 108 108 108 107 108 112 110 105 101 97 92 89 91 83 70 62 71 80 82 37 354 344
241 305 6 81 74 69 85 80 82 91 88 100 118 123 122 118 116 113 111 110 109 109 109 109 108 104 101 102 106 106 102 95 91 88 82 81 71 57 73 80 14 342 325 322
277 47 82 114 90 82 94 93 91 97 105 108 111 117 118 116 113 111 111 113 114 113 111 109 104 98 92 92 94 97 101 98 89 84 76 64 54 44 12 345 333 324 323 324
61 114 190 153 118 100 101 98 94 92 94 102 109 112 114 113 112 112 113 114 114 111 108 104 98 90 86 90 91 90 87 83 82 75 68 59 48 31 13 355 341 333 336 336
36 52 106 108 107 109 112 113 110 107 107 107 110 115 118 117 115 113 114 115 111 107 104 101 95 88 85 90 91 88 84 78 75 73 65 53 35 15 359 349 337 324 325 334
74 79 111 128 137 138 138 137 131 128 125 121 118 116 114 113 113 113 111 113 113 110 106 101 95 90 88 90 89 84 79 81 76 67 56 41 21 6 358 347 334 326 323 318
155 171 170 167 166 163 158 149 141 137 132 127 124 122 120 118 113 107 100 96 99 98 98 100 97 89 84 86 90 93 89 77 67 60 51 32 9 358 347 335 325 320 315 319
248 223 192 182 174 166 154 142 138 137 135 131 129 129 129 127 122 117 112 107 99 89 82 91 94 88 79 77 81 85 87 81 67 60 36 16 354 338 329 325 321 318 315 321
282 222 188 170 161 155 147 142 139 135 135 137 135 131 124 120 121 120 118 114 112 108 103 107 107 92 84 81 84 78 80 75 60 45 19 350 350 340 332 323 316 313 314 318
353 84 135 139 140 142 142 140 138 138 141 138 131 125 123 125 126 123 112 99 98 118 124 114 102 96 90 83 82 76 73 64 45 22 3 347 335 329 323 320 318 314 313 313
17 87 123 131 130 133 140 144 145 144 141 138 137 135 131 128 124 120 116 108 101 114 118 117 105 102 96 97 84 75 65 48 27 7 347 334 326 321 318 317 317 315 313 314
15 88 118 126 130 132 137 141 143 141 138 134 132 132 131 129 123 108 98 118 131 129 115 105 105 113 114 100 80 75 56 28 4 344 331 323 318 312 308 306 302 303 304 304
23 86 117 129 133 133 129 134 139 142 142 142 144 144 140 134 132 128 122 127 130 129 117 114 125 122 111 92 84 68 34 358 338 326 314 303 295 291 292 295 295 298 300 302
47 82 108 119 124 131 135 133 127 124 124 124 129 133 133 127 110 96 124 138 137 125 116 128 127 120 106 90 79 43 354 331 317 305 297 293 290 290 289 291 293 295 296 299
75 101 120 133 139 139 132 127 122 122 121 118 113 110 108 115 124 127 125 131 133 122 116 125 123 112 96 85 54 346 316 293 281 284 287 295 294 292 288 288 289 293 295 295
101 132 139 141 134 135 140 141 141 141 136 130 120 110 107 109 116 119 117 118 122 123 117 107 107 104 88 54 337 313 303 306 316 314 298 292 288 288 288 291 293 292 291 291
129 124 119 118 130 143 149 151 150 150 148 142 132 126 124 122 121 119 118 116 115 115 115 113 111 106 81 328 309 303 300 296 292 288 287 285 285 285 288 290 290 290 291 291